Powrót do katalogu

IRIDIUM 33 DEB

AktywnyPO
NORAD 35631·DEBRIS·🇺🇸 United States

Wystrzelony Sep 14, 1997 z Baikonur Cosmodrome

Loading…

Następne Przeloty (najbliższe 24 godziny)

TLE

ŚwieżeSource: Space-Track

Epoka: Sep 14, 2026, 11:33 UTC

1 35631U 97051RD  26257.48135058  .00000568  00000-0  14789-3 0  9997
2 35631  86.3601 262.1688 0014396 283.7828 228.2510 14.47897538911869

Śledź IRIDIUM 33 DEB w czasie rzeczywistym z AllMySat

Download on the App Store